Date,TemperatureHighF,TemperatureAvgF,TemperatureLowF,DewpointHighF,DewpointAvgF,DewpointLowF,HumidityHigh,HumidityAvg,HumidityLow,PressureMaxIn,PressureMinIn,WindSpeedMaxMPH,WindSpeedAvgMPH,GustSpeedMaxMPH,PrecipitationSumIn
2013-1-1,15,4,-1,10,0,-4,92,83,56,0.00,40.00,2,1,3,0.00
2013-1-2,16,3,-9,2,-3,-12,91,76,47,0.00,40.00,2,1,3,0.00
2013-1-3,14,1,-9,-3,-7,-12,88,72,46,0.00,40.00,2,1,3,0.00
2013-1-4,17,5,-7,-1,-4,-9,89,67,42,0.00,40.00,2,1,3,0.00
2013-1-5,27,9,-1,3,-2,-5,86,61,35,0.00,40.00,2,1,4,0.00
2013-1-6,24,13,1,6,0,-5,81,55,35,0.00,40.00,2,1,4,0.00
2013-1-7,27,15,6,5,1,-1,78,55,31,0.00,40.00,2,1,4,0.00
2013-1-8,29,14,4,6,1,-2,81,59,30,0.00,40.00,2,1,3,0.00
2013-1-9,30,16,7,10,7,4,94,69,39,0.00,40.00,3,2,4,0.00
2013-1-10,30,20,8,15,8,4,90,62,42,0.00,40.00,5,2,11,0.00
2013-1-11,26,12,-2,18,5,-7,93,75,55,0.00,40.00,14,8,20,0.00
2013-1-12,14,-1,-7,-5,-9,-13,87,72,41,0.00,40.00,3,1,15,0.00
2013-1-13,4,-4,-14,-4,-11,-18,90,74,47,0.00,40.00,2,1,5,0.00
2013-1-14,7,-4,-11,-7,-11,-15,86,75,49,0.00,40.00,2,1,3,0.00
2013-1-15,9,-3,-14,-4,-11,-18,84,70,41,0.00,40.00,2,1,3,0.00
2013-1-16,27,8,-5,10,1,-8,94,75,45,0.00,40.00,2,1,3,0.00
2013-1-17,25,13,3,13,8,1,94,80,48,0.00,40.00,2,1,3,0.00
2013-1-18,27,14,4,12,8,2,97,80,48,0.00,40.00,2,1,3,0.00
2013-1-19,33,15,4,11,6,1,94,68,39,0.00,40.00,2,1,4,0.00
2013-1-20,27,14,1,5,2,-2,90,61,37,0.00,40.00,2,1,3,0.00
2013-1-21,35,18,4,5,2,-2,75,49,26,0.00,40.00,2,2,4,0.00
2013-1-22,28,18,6,4,1,-2,72,48,30,0.00,40.00,2,1,3,0.00
2013-1-23,32,17,5,3,-1,-5,68,45,25,0.00,40.00,2,1,4,0.00
2013-1-24,35,24,12,27,12,-2,94,61,35,0.00,40.00,3,1,5,0.00
2013-1-25,38,32,27,31,29,26,99,89,70,0.00,40.00,4,1,6,0.06
2013-1-26,40,33,28,32,13,-100,98,75,70,0.00,40.00,3,1,4,0.05
2013-1-27,41,33,27,30,-14,-100,97,49,55,0.00,40.00,4,2,7,0.10
2013-1-28,33,23,12,27,19,10,100,86,62,0.00,40.00,8,3,15,0.01
2013-1-29,18,9,-1,15,5,-3,95,82,56,0.00,40.00,11,4,16,0.01
2013-1-30,17,9,-2,12,5,-5,93,84,62,0.00,40.00,6,3,11,0.01
2013-1-31,30,22,13,21,15,10,95,75,54,0.00,40.00,9,3,13,0.00
2013-2-1,36,20,10,16,12,9,97,73,41,0.00,40.00,4,1,6,0.00
2013-2-2,34,20,7,13,10,6,98,66,36,0.00,40.00,2,1,4,0.00
2013-2-3,26,17,10,16,8,4,85,67,46,0.00,40.00,2,1,4,0.00
2013-2-4,27,19,14,17,14,10,97,79,58,0.00,40.00,3,2,4,0.00
2013-2-5,34,20,8,13,10,7,97,67,37,0.00,40.00,2,1,4,0.00
2013-2-6,39,22,10,20,14,9,96,72,40,0.00,40.00,3,1,5,0.00
2013-2-7,32,24,17,25,15,2,100,71,38,0.00,40.00,3,2,5,0.02
2013-2-8,38,28,18,21,13,2,72,53,28,0.00,40.00,11,5,17,0.01
2013-2-9,30,22,14,19,13,9,95,71,47,0.00,40.00,12,5,17,0.00
2013-2-10,32,16,9,25,10,3,95,79,44,0.00,40.00,12,3,17,0.03
2013-2-11,20,13,7,11,5,3,91,72,55,0.00,40.00,5,2,7,0.03
2013-2-12,23,12,3,5,2,0,91,68,42,0.00,40.00,2,1,3,0.00
2013-2-13,29,13,2,11,5,-1,92,72,39,0.00,40.00,3,1,4,0.00
2013-2-14,30,17,9,14,10,7,95,76,50,0.00,40.00,8,2,10,0.00
2013-2-15,24,16,7,11,8,6,94,73,54,0.00,40.00,8,4,13,0.00
2013-2-16,35,20,8,8,5,3,81,57,30,0.00,40.00,3,1,4,0.00
2013-2-17,38,23,9,15,5,-5,79,48,19,0.00,40.00,4,2,7,0.00
2013-2-18,24,16,7,17,5,-8,90,61,34,0.00,40.00,11,5,16,0.00
2013-2-19,31,16,0,2,-2,-6,75,47,27,0.00,40.00,3,2,7,0.00
2013-2-20,32,23,18,22,13,2,97,68,39,0.00,40.00,4,2,9,0.00
2013-2-21,23,19,14,20,16,12,96,88,74,0.00,40.00,11,5,15,0.00
2013-2-22,23,16,8,14,11,6,96,80,58,0.00,40.00,4,2,10,0.00
2013-2-23,29,15,2,17,10,0,96,80,47,0.00,40.00,4,2,6,0.00
2013-2-24,19,12,5,16,7,4,97,83,52,0.00,40.00,6,2,10,0.00
2013-2-25,33,14,5,9,5,2,90,70,32,0.00,40.00,3,1,4,0.00
2013-2-26,18,9,3,11,4,0,90,80,58,0.00,40.00,11,3,15,0.00
2013-2-27,24,12,3,5,2,0,93,66,41,0.00,40.00,4,1,7,0.00
2013-2-28,25,11,-2,6,0,-100,92,66,30,0.00,40.00,4,2,9,0.00
2013-3-1,33,22,15,20,14,6,85,71,55,0.00,40.00,11,4,14,0.00
2013-3-2,42,27,15,18,15,13,94,65,33,0.00,40.00,3,2,4,0.16
2013-3-3,39,28,17,28,14,-100,100,65,41,0.00,40.00,7,2,13,0.01
2013-3-4,33,26,13,30,-15,-100,100,56,48,0.00,40.00,14,6,22,0.01
2013-3-5,36,17,2,7,4,0,89,60,29,0.00,40.00,3,1,5,0.01
2013-3-6,42,25,9,14,8,5,84,52,30,0.00,40.00,2,1,5,0.07
2013-3-7,46,34,21,15,9,0,61,36,19,0.00,40.00,3,2,6,0.01
2013-3-8,45,33,23,27,6,-100,92,43,26,0.00,40.00,7,3,14,0.00
2013-3-9,27,22,18,25,-2,-100,100,74,83,0.00,40.00,10,4,14,0.00
2013-3-10,30,21,9,19,12,5,99,69,45,0.00,40.00,6,3,10,0.00
2013-3-11,41,24,10,17,14,9,95,68,35,0.00,40.00,10,3,15,0.00
2013-3-12,39,28,18,24,20,16,95,71,53,0.00,40.00,9,4,13,0.00
2013-3-13,45,33,20,25,20,17,97,62,38,0.00,40.00,3,1,6,0.00
2013-3-14,53,36,23,22,19,17,76,51,29,0.00,40.00,2,1,4,0.00
2013-3-15,50,39,26,22,20,17,71,47,32,0.00,40.00,4,2,5,0.00
2013-3-16,40,33,27,33,22,-100,100,71,49,0.00,40.00,8,2,15,0.05
2013-3-17,41,28,19,30,15,-100,100,76,45,0.00,40.00,14,5,26,0.11
2013-3-18,33,27,21,15,9,2,67,46,36,0.00,40.00,15,9,21,0.01
2013-3-19,38,30,22,13,7,1,53,39,25,0.00,40.00,6,4,10,0.00
2013-3-20,39,27,14,30,7,-5,100,47,21,0.00,40.00,4,2,9,0.00
2013-3-21,37,29,19,30,-2,-100,100,63,62,0.00,40.00,16,4,26,0.09
2013-3-22,37,25,13,14,8,2,80,53,23,0.00,40.00,14,4,20,0.01
2013-3-23,23,13,5,10,6,2,91,74,48,0.00,40.00,13,6,18,0.00
2013-3-24,22,10,-2,5,0,-6,88,68,42,0.00,40.00,10,3,18,0.00
2013-3-25,32,15,-2,3,-4,-8,77,45,23,0.00,40.00,5,2,8,0.00
2013-3-26,46,28,10,18,6,-5,56,40,26,0.00,40.00,10,3,18,0.00
2013-3-27,51,39,30,20,16,9,60,40,22,0.00,40.00,6,3,11,0.00
2013-3-28,53,46,36,20,18,16,45,32,26,0.00,40.00,4,2,6,0.00
2013-3-29,53,40,27,24,20,16,66,46,30,0.00,40.00,6,2,9,0.00
2013-3-30,54,39,28,27,22,-100,81,55,32,0.00,40.00,6,2,15,0.00
2013-3-31,55,38,26,26,17,-100,87,51,23,0.00,40.00,5,2,7,0.00
2013-4-1,55,40,27,27,20,15,70,47,28,0.00,40.00,4,2,8,0.00
2013-4-2,49,35,29,30,3,-100,100,49,24,0.00,40.00,5,3,10,0.00
2013-4-3,48,36,26,31,-9,-100,100,42,32,0.00,40.00,6,2,12,0.16
2013-4-4,55,40,26,24,20,16,75,48,23,0.00,40.00,7,2,10,0.06
2013-4-5,54,42,32,34,22,16,100,48,26,0.00,40.00,9,4,16,0.00
2013-4-6,51,40,30,34,-12,-100,99,37,20,0.00,40.00,11,4,18,0.00
2013-4-7,48,37,30,33,-17,-100,83,39,34,0.00,40.00,9,4,20,0.00
2013-4-8,53,40,31,33,22,15,83,53,22,0.00,40.00,9,4,17,0.00
2013-4-9,41,26,14,29,11,-100,99,73,40,0.00,40.00,8,5,18,0.00
2013-4-10,31,20,10,19,14,8,93,77,60,0.00,40.00,10,4,15,0.00
2013-4-11,40,28,16,31,21,11,90,76,57,0.00,40.00,10,5,16,0.02
2013-4-12,46,34,26,27,23,15,93,66,35,0.00,40.00,9,3,15,0.01
2013-4-13,52,39,23,23,16,12,78,43,21,0.00,40.00,13,6,30,0.01
2013-4-14,42,32,26,32,-13,-100,100,50,47,0.00,40.00,13,7,30,0.06
2013-4-15,51,39,28,32,26,17,94,61,34,0.00,40.00,10,5,21,0.03
2013-4-16,57,46,37,17,12,5,44,27,13,0.00,40.00,12,7,23,0.02
2013-4-17,44,31,16,30,16,9,91,58,23,0.00,40.00,10,6,20,0.00
2013-4-18,26,18,10,12,6,-1,84,62,33,0.00,40.00,11,8,18,0.00
2013-4-19,41,26,10,15,10,5,79,54,28,0.00,40.00,12,5,19,0.00
2013-4-20,44,33,25,30,24,15,100,72,44,0.00,40.00,9,4,18,0.00
2013-4-21,50,37,27,33,-26,-100,100,27,17,0.00,40.00,11,4,17,0.03
2013-4-22,53,40,31,36,-2,-100,93,40,25,0.00,40.00,11,6,19,0.06
2013-4-23,39,30,21,25,8,-100,100,56,35,0.00,40.00,13,7,20,0.02
2013-4-24,42,30,18,11,8,5,63,41,22,0.00,40.00,10,4,18,0.01
2013-4-25,53,39,26,23,14,7,55,38,18,0.00,40.00,9,3,17,0.00
2013-4-26,58,43,28,25,16,5,75,39,13,0.00,40.00,7,3,13,0.00
2013-4-27,59,45,29,27,17,6,80,41,12,0.00,40.00,7,3,16,0.00
2013-4-28,64,47,30,18,13,8,52,28,13,0.00,40.00,9,4,15,0.00
2013-4-29,65,50,34,22,17,12,53,29,13,0.00,40.00,12,5,20,0.00
2013-4-30,66,55,40,20,13,8,42,21,12,0.00,40.00,12,6,22,0.00
2013-5-1,52,38,23,34,22,8,96,57,17,0.00,40.00,13,6,19,0.02
2013-5-2,46,31,15,12,5,-2,75,39,14,0.00,40.00,7,4,14,0.02
2013-5-3,60,40,21,13,6,1,57,28,10,0.00,40.00,6,3,10,0.00
2013-5-4,58,44,32,27,14,2,62,34,11,0.00,40.00,8,4,15,0.00
2013-5-5,53,44,35,27,21,14,57,41,22,0.00,40.00,7,4,16,0.00
2013-5-6,49,40,32,36,12,-100,98,57,51,0.00,40.00,6,3,13,0.06
2013-5-7,52,38,31,37,-22,-100,92,42,42,0.00,40.00,4,1,8,0.27
2013-5-8,45,35,31,33,-9,-100,96,58,53,0.00,40.00,7,3,13,0.08
2013-5-9,44,36,30,36,-16,-100,98,48,59,0.00,40.00,5,2,10,0.34
2013-5-10,53,40,29,30,24,-100,87,59,36,0.00,40.00,5,3,8,0.09
2013-5-11,61,45,31,33,24,-100,83,51,21,0.00,40.00,5,3,13,0.00
2013-5-12,64,49,34,31,27,22,76,45,22,0.00,40.00,6,3,12,0.00
2013-5-13,70,53,37,35,30,27,69,44,22,0.00,40.00,7,2,13,0.00
2013-5-14,69,51,39,40,34,26,77,55,23,0.00,40.00,6,3,12,0.01
2013-5-15,66,47,40,43,38,31,89,73,30,0.00,40.00,8,3,14,0.68
2013-5-16,67,47,36,41,17,-100,90,53,20,0.00,40.00,6,3,14,0.01
2013-5-17,68,54,39,30,14,-100,59,28,9,0.00,40.00,9,3,15,0.00
2013-5-18,59,46,33,36,24,6,100,47,17,0.00,40.00,13,3,25,0.08
2013-5-19,45,36,31,35,2,-100,100,64,59,0.00,40.00,7,3,18,0.15
2013-5-20,54,38,31,34,14,-100,100,66,35,0.00,40.00,6,3,15,0.01
2013-5-21,59,44,31,34,28,21,100,60,23,0.00,40.00,8,3,17,0.00
2013-5-22,67,51,34,32,25,18,74,40,19,0.00,40.00,10,3,18,0.00
2013-5-23,71,58,43,29,19,10,50,25,11,0.00,40.00,10,6,20,0.00
2013-5-24,71,58,42,24,12,5,37,18,8,0.00,40.00,11,5,19,0.00
2013-5-25,73,56,37,25,15,8,46,23,8,0.00,40.00,6,3,14,0.00
2013-5-26,72,56,41,27,17,9,44,23,12,0.00,40.00,8,3,13,0.00
2013-5-27,67,54,39,21,14,10,40,22,12,0.00,40.00,8,3,15,0.00
2013-5-28,66,53,39,23,14,6,38,23,11,0.00,40.00,8,4,15,0.00
2013-5-29,52,44,35,35,29,16,92,58,28,0.00,40.00,12,6,22,0.01
2013-5-30,57,46,33,26,20,16,71,40,20,0.00,40.00,17,9,29,0.01
2013-5-31,58,48,40,24,12,-3,50,26,9,0.00,40.00,17,8,26,0.00
2013-6-1,67,49,31,17,10,-100,43,23,12,0.00,40.00,5,3,12,0.00
2013-6-2,74,54,35,24,18,13,45,27,11,0.00,40.00,8,3,20,0.00
2013-6-3,73,58,43,31,25,18,49,31,13,0.00,40.00,12,5,21,0.00
2013-6-4,72,57,44,33,29,25,56,36,17,0.00,40.00,13,4,24,0.00
2013-6-5,71,58,42,35,24,13,59,31,12,0.00,40.00,11,5,18,0.00
2013-6-6,75,57,40,33,25,20,50,32,13,0.00,40.00,9,4,15,0.00
2013-6-7,71,56,44,37,32,25,67,43,20,0.00,40.00,7,3,14,0.00
2013-6-8,75,60,43,35,29,23,59,34,15,0.00,40.00,7,4,16,0.00
2013-6-9,81,64,46,32,26,19,55,28,10,0.00,40.00,8,3,14,0.00
2013-6-10,81,66,49,36,27,20,44,25,12,0.00,40.00,12,4,30,0.00
2013-6-11,79,64,51,30,21,13,41,21,10,0.00,40.00,13,5,20,0.00
2013-6-12,82,65,47,30,19,11,32,18,11,0.00,40.00,8,4,13,0.00
2013-6-13,75,63,51,34,25,14,41,24,16,0.00,40.00,6,3,17,0.00
2013-6-14,76,65,53,38,25,5,47,25,9,0.00,40.00,9,4,16,0.00
2013-6-15,75,59,43,34,21,8,44,25,13,0.00,40.00,11,4,22,0.00
2013-6-16,70,55,43,41,34,28,62,46,23,0.00,40.00,10,3,16,0.04
2013-6-17,75,58,44,40,31,17,66,42,12,0.00,40.00,9,3,19,0.04
2013-6-18,71,60,48,41,34,19,62,40,20,0.00,40.00,7,4,15,0.00
2013-6-19,80,63,44,29,13,2,35,18,5,0.00,40.00,10,4,19,0.00
2013-6-20,78,60,49,20,11,3,25,15,10,0.00,40.00,4,2,10,0.00
2013-6-22,76,67,50,24,16,10,29,14,10,0.00,40.00,9,6,19,0.00
2013-6-23,74,60,44,29,18,10,29,20,10,0.00,40.00,6,3,12,0.00
2013-6-24,76,60,45,24,15,10,39,19,10,0.00,40.00,8,3,16,0.00
2013-6-25,76,62,48,27,21,12,28,21,15,0.00,40.00,7,4,17,0.00
2013-6-26,84,66,46,34,28,24,47,27,12,0.00,40.00,5,2,11,0.00
2013-6-27,89,68,52,34,28,16,42,25,7,0.00,40.00,10,3,18,0.00
2013-6-28,84,67,57,43,35,25,60,34,12,0.00,40.00,6,3,20,0.00
2013-6-29,80,61,49,43,40,34,68,48,21,0.00,40.00,6,3,16,0.01
2013-6-30,80,60,46,45,40,34,77,52,19,0.00,40.00,8,3,18,0.01
2013-7-1,78,61,46,44,38,23,73,47,14,0.00,40.00,5,3,11,0.00
2013-7-2,77,62,49,45,37,27,71,44,16,0.00,40.00,6,3,12,0.00
2013-7-3,79,62,48,40,34,23,68,41,13,0.00,40.00,6,3,14,0.00
2013-7-4,81,63,48,40,35,26,63,39,13,0.00,40.00,5,3,12,0.00
2013-7-5,79,67,55,43,39,35,54,37,22,0.00,40.00,6,4,13,0.00
2013-7-6,82,63,54,46,41,32,62,47,18,0.00,40.00,7,3,12,0.00
2013-7-7,79,66,55,47,42,36,72,45,21,0.00,40.00,7,3,13,0.00
2013-7-8,81,64,50,49,41,26,83,51,13,0.00,40.00,9,3,16,0.00
2013-7-9,85,68,52,39,31,24,53,29,12,0.00,40.00,6,3,11,0.00
2013-7-10,83,69,59,43,36,-100,47,32,19,0.00,40.00,7,4,16,0.00
2013-7-11,85,66,53,47,41,30,65,43,16,0.00,40.00,6,3,11,0.00
2013-7-12,74,60,53,51,47,43,90,63,33,0.00,40.00,10,3,14,0.02
2013-7-13,76,62,49,51,47,42,90,62,30,0.00,40.00,4,2,12,0.01
2013-7-14,82,61,49,50,46,37,91,62,20,0.00,40.00,7,3,12,0.00
2013-7-15,69,59,50,53,47,43,81,65,46,0.00,40.00,6,3,12,0.00
2013-7-16,75,68,54,45,38,31,62,35,20,0.00,40.00,6,4,13,0.00
2013-7-17,80,62,48,42,40,36,72,49,23,0.00,40.00,6,3,10,0.00
2013-7-18,80,60,50,50,47,40,92,66,27,0.00,40.00,4,2,11,0.08
2013-7-19,72,55,47,53,49,45,95,81,38,0.00,40.00,6,2,10,0.05
2013-7-20,78,60,47,54,43,-100,97,63,19,0.00,40.00,6,3,10,0.03
2013-7-21,83,66,54,46,37,25,69,40,12,0.00,40.00,5,3,9,0.00
2013-7-22,84,67,52,39,32,22,51,31,10,0.00,40.00,7,3,14,0.00
2013-7-23,84,64,52,37,32,19,50,32,9,0.00,40.00,10,3,17,0.00
2013-7-24,71,62,52,52,40,34,93,47,33,0.00,40.00,3,2,14,0.09
2013-7-25,76,62,50,51,45,35,91,59,26,0.00,40.00,8,3,19,0.01
2013-7-26,80,64,48,47,41,28,83,49,17,0.00,40.00,8,4,13,0.01
2013-7-27,77,58,50,52,45,36,97,66,25,0.00,40.00,13,3,19,0.16
2013-7-28,64,54,50,55,31,-100,100,76,63,0.00,40.00,7,2,10,0.43
2013-7-29,70,57,44,50,46,39,99,70,35,0.00,40.00,10,4,29,0.02
2013-7-30,75,58,42,47,38,27,99,57,17,0.00,40.00,7,3,15,0.01
2013-7-31,80,63,46,40,32,24,64,36,13,0.00,40.00,6,2,12,0.00
2013-8-1,68,57,52,50,42,33,91,60,38,0.00,40.00,8,3,13,0.03
2013-8-2,78,62,48,50,19,-100,94,44,21,0.00,40.00,7,3,12,0.04
2013-8-3,75,60,51,50,44,35,81,59,25,0.00,40.00,7,3,13,0.01
2013-8-4,78,59,44,48,43,34,98,62,20,0.00,40.00,8,3,13,0.00
2013-8-5,74,58,49,49,46,41,83,66,33,0.00,40.00,8,3,13,0.00
2013-8-6,74,55,48,51,45,33,97,73,25,0.00,40.00,6,2,14,0.14
2013-8-7,57,51,48,53,47,42,100,87,64,0.00,40.00,5,2,8,0.15
2013-8-8,69,53,45,49,43,33,97,75,32,0.00,40.00,6,2,13,0.04
2013-8-9,69,54,42,46,40,31,92,63,24,0.00,40.00,7,3,13,0.04
2013-8-10,72,53,45,44,40,38,81,64,29,0.00,40.00,11,4,20,0.00
2013-8-11,74,56,40,43,36,25,95,55,16,0.00,40.00,5,2,10,0.00
2013-8-12,72,57,47,44,38,32,82,52,23,0.00,40.00,8,3,14,0.00
2013-8-13,73,56,41,44,35,-100,94,55,20,0.00,40.00,6,3,13,0.00
2013-8-14,76,58,44,37,30,22,65,38,13,0.00,40.00,6,3,13,0.00
2013-8-15,78,56,43,33,20,-100,56,32,12,0.00,40.00,8,3,16,0.00
2013-8-16,81,63,46,32,24,-100,52,28,10,0.00,40.00,5,3,12,0.00
2013-8-17,81,62,48,37,27,-100,50,30,12,0.00,40.00,6,2,15,0.00
2013-8-18,78,59,49,49,40,34,82,51,20,0.00,40.00,6,2,13,0.06
2013-8-19,82,57,45,47,33,-100,81,54,20,0.00,40.00,6,2,12,0.01
2013-8-20,77,61,49,47,40,-100,77,51,21,0.00,40.00,8,3,13,0.01
2013-8-21,80,59,48,48,42,37,78,57,22,0.00,40.00,5,2,12,0.01
2013-8-22,78,62,48,45,41,34,85,51,20,0.00,40.00,6,3,12,0.00
2013-8-23,73,61,52,46,43,34,76,53,26,0.00,40.00,6,3,14,0.00
2013-8-24,71,56,49,51,43,-100,88,64,28,0.00,40.00,4,2,9,0.05
2013-8-25,73,59,48,51,46,43,98,66,34,0.00,40.00,5,3,11,0.07
2013-8-26,74,60,52,53,49,46,91,70,39,0.00,40.00,4,2,9,0.05
2013-8-27,78,56,47,52,37,-100,97,71,30,0.00,40.00,3,2,5,0.03
2013-8-28,82,71,59,50,41,35,53,35,20,0.00,40.00,5,3,11,0.00
2013-8-29,83,64,50,52,41,33,88,47,18,0.00,40.00,5,3,11,0.05
2013-8-30,78,64,53,53,45,36,88,56,23,0.00,40.00,8,2,12,0.05
2013-8-31,78,61,51,47,42,-100,71,52,24,0.00,40.00,6,2,13,0.00
2013-9-1,77,61,49,49,45,38,86,60,28,0.00,40.00,5,2,14,0.00
2013-9-2,80,62,48,50,44,36,91,58,22,0.00,40.00,7,4,11,0.06
2013-9-3,79,62,51,46,43,36,75,53,21,0.00,40.00,8,2,14,0.01
2013-9-4,76,61,52,48,44,38,75,56,27,0.00,40.00,7,3,13,0.00
2013-9-5,85,65,46,46,39,24,89,46,13,0.00,40.00,5,2,10,0.00
2013-9-6,80,64,50,45,40,35,72,44,20,0.00,40.00,6,2,12,0.04
2013-9-7,79,63,48,45,37,-100,77,43,16,0.00,40.00,6,2,11,0.02
2013-9-8,76,62,52,47,40,33,78,48,23,0.00,40.00,8,3,12,0.00
2013-9-9,71,55,45,50,46,39,96,73,32,0.00,40.00,6,2,13,0.00
2013-9-10,66,56,47,50,46,38,100,73,37,0.00,40.00,7,4,14,0.05
2013-9-11,66,57,51,48,45,40,87,67,38,0.00,40.00,6,4,11,0.05
2013-9-12,69,55,46,51,36,-100,100,69,40,0.00,40.00,5,2,13,0.17
2013-9-13,62,53,45,48,-7,-100,88,43,42,0.00,40.00,4,2,9,0.49
2013-9-14,61,50,45,49,44,-100,95,82,54,0.00,40.00,3,2,6,0.44
2013-9-15,62,48,44,47,44,41,98,87,48,0.00,40.00,6,2,14,0.22
2013-9-16,68,52,40,47,42,40,99,73,36,0.00,40.00,4,2,9,0.20
2013-9-17,66,54,42,47,42,37,95,66,36,0.00,40.00,4,2,8,0.00
2013-9-18,52,48,45,46,34,-100,99,73,67,0.00,40.00,4,2,8,0.25
2013-9-19,65,51,40,45,27,-100,99,57,21,0.00,40.00,7,3,14,0.32
2013-9-20,69,50,35,32,26,17,66,43,14,0.00,40.00,6,2,10,0.01
2013-9-21,67,52,39,38,31,-100,70,48,27,0.00,40.00,6,3,12,0.00
2013-9-22,57,46,32,44,24,-100,100,65,53,0.00,40.00,5,2,12,0.54
2013-9-23,51,41,32,36,13,-100,100,61,39,0.00,40.00,12,7,20,0.66
2013-9-24,65,43,30,35,29,20,96,64,19,0.00,40.00,3,2,6,0.01
2013-9-25,67,53,40,29,24,22,57,36,18,0.00,40.00,10,4,18,0.00
2013-9-26,66,54,43,23,17,9,39,24,11,0.00,40.00,9,5,18,0.00
2013-9-27,48,39,28,38,9,-100,99,60,38,0.00,40.00,12,4,17,0.09
2013-9-28,55,35,22,31,-28,-100,100,28,20,0.00,40.00,3,2,6,0.02
2013-9-29,61,44,28,30,23,14,90,50,16,0.00,40.00,10,3,15,0.01
2013-9-30,67,51,35,29,24,21,63,37,20,0.00,40.00,9,3,15,0.00
2013-10-1,68,57,48,24,23,20,37,27,16,0.00,40.00,4,3,9,0.00
2013-10-2,65,50,35,26,21,16,55,35,15,0.00,40.00,4,2,8,0.00
2013-10-3,66,50,38,27,22,19,51,35,17,0.00,40.00,7,3,13,0.00
2013-10-4,43,30,24,25,18,9,96,65,30,0.00,40.00,11,7,18,0.00
2013-10-5,49,31,17,20,16,7,97,62,18,0.00,40.00,9,4,16,0.00
2013-10-6,61,40,22,24,18,14,78,47,19,0.00,40.00,3,2,7,0.00
2013-10-7,68,47,29,28,22,13,80,43,12,0.00,40.00,5,2,7,0.00
2013-10-8,64,48,34,26,22,17,65,39,17,0.00,40.00,6,3,13,0.00
2013-10-9,59,49,38,23,19,12,55,34,16,0.00,40.00,7,4,14,0.00
2013-10-10,50,39,29,31,-19,-100,100,34,34,0.00,40.00,14,5,25,0.00
2013-10-11,44,34,28,31,8,-100,100,67,55,0.00,40.00,9,5,14,0.06
2013-10-12,52,38,27,30,25,-100,93,65,34,0.00,40.00,3,2,6,0.01
2013-10-13,55,44,34,31,26,19,73,53,28,0.00,40.00,7,3,11,0.00
2013-10-14,46,35,29,33,8,-100,98,63,45,0.00,40.00,11,5,17,0.02
2013-10-15,43,33,27,29,-28,-100,100,39,39,0.00,40.00,5,2,8,0.01
2013-10-16,40,30,24,28,-6,-100,99,56,46,0.00,40.00,10,4,16,0.01
2013-10-17,47,32,19,21,16,9,90,57,22,0.00,40.00,10,3,15,0.01
2013-10-18,41,31,23,22,13,3,85,50,21,0.00,40.00,10,6,17,0.01
2013-10-19,51,33,19,15,11,-100,68,44,23,0.00,40.00,10,3,14,0.00
2013-10-20,49,37,25,21,16,13,70,46,24,0.00,40.00,11,3,16,0.00
2013-10-21,51,36,25,24,16,8,85,50,17,0.00,40.00,7,3,13,0.00
2013-10-22,58,40,25,20,16,13,72,43,17,0.00,40.00,5,2,8,0.00
2013-10-23,60,42,27,23,16,7,73,41,12,0.00,40.00,4,2,8,0.00
2013-10-24,62,42,29,19,16,12,58,37,16,0.00,40.00,4,2,8,0.00
2013-10-25,47,39,30,35,25,18,99,60,39,0.00,40.00,4,2,7,0.00
2013-10-26,56,40,33,35,22,-100,100,64,23,0.00,40.00,3,1,6,0.01
2013-10-27,54,40,27,27,23,20,82,54,26,0.00,40.00,5,2,10,0.00
2013-10-28,53,42,35,26,19,13,63,41,22,0.00,40.00,6,4,13,0.00
2013-10-29,48,40,29,30,19,14,100,45,25,0.00,40.00,9,5,15,0.00
2013-10-30,35,27,22,29,1,-100,100,68,52,0.00,40.00,6,2,14,0.04
2013-10-31,31,26,22,23,15,-100,100,75,58,0.00,40.00,11,7,16,0.04
2013-11-1,41,30,24,25,0,-100,100,56,35,0.00,40.00,10,6,19,0.00
2013-11-2,56,33,17,21,12,-100,96,53,11,0.00,40.00,3,2,6,0.00
2013-11-3,50,36,24,26,15,10,92,44,26,0.00,40.00,11,4,20,0.00
2013-11-4,39,30,21,28,18,10,100,63,33,0.00,40.00,9,2,13,0.00
2013-11-5,28,22,9,28,-6,-100,100,60,54,0.00,40.00,10,4,15,0.00
2013-11-6,35,20,7,18,11,4,90,69,39,0.00,40.00,7,2,12,0.00
2013-11-7,48,30,17,20,16,13,88,59,31,0.00,40.00,3,2,4,0.08
2013-11-8,50,36,23,22,17,15,76,49,24,0.00,40.00,13,4,20,0.01
2013-11-9,53,36,25,22,14,-100,71,45,20,0.00,40.00,3,2,6,0.00
2013-11-10,54,39,24,20,15,12,72,40,20,0.00,40.00,5,2,11,0.00
2013-11-11,53,36,24,19,15,11,69,45,20,0.00,40.00,4,2,7,0.00
2013-11-12,54,38,25,19,14,6,71,41,16,0.00,40.00,3,2,6,0.00
2013-11-13,50,35,23,15,12,9,59,40,24,0.00,40.00,5,2,8,0.00
2013-11-14,48,36,28,23,15,9,72,44,21,0.00,40.00,4,2,8,0.00
2013-11-15,41,30,21,30,18,11,99,66,32,0.00,40.00,7,3,13,0.00
2013-11-16,36,28,23,31,25,-100,99,93,66,0.00,40.00,19,5,31,0.06
2013-11-17,40,29,23,27,24,19,98,81,51,0.00,40.00,21,6,30,0.06
2013-11-18,44,25,14,24,19,13,99,79,45,0.00,40.00,3,2,4,0.01
2013-11-19,41,26,16,26,19,13,94,74,45,0.00,40.00,2,1,4,0.01
2013-11-20,47,32,28,30,27,24,100,83,41,0.00,40.00,5,1,9,0.04
2013-11-21,38,31,29,33,29,26,100,92,76,0.00,40.00,2,1,4,0.06
2013-11-22,34,28,24,29,23,19,99,83,68,0.00,40.00,7,4,11,0.01
2013-11-23,33,28,24,26,20,-100,95,73,67,0.00,40.00,7,5,16,0.00
2013-11-24,34,26,21,25,23,19,99,86,64,0.00,40.00,7,2,10,0.00
2013-11-25,40,26,21,23,22,18,97,86,51,0.00,40.00,3,2,5,0.00
2013-11-26,34,23,18,24,19,17,98,85,53,0.00,40.00,2,1,4,0.00
2013-11-27,33,22,9,19,16,8,96,77,54,0.00,40.00,2,1,3,0.00
2013-11-28,39,31,13,21,19,12,97,64,48,0.00,40.00,2,1,3,0.03
2013-11-29,36,32,27,18,17,16,66,55,43,0.00,40.00,2,2,3,0.01
2013-11-30,36,27,13,20,13,-100,96,64,52,0.00,40.00,3,2,4,0.01
2013-12-1,36,29,19,20,18,16,86,64,50,0.00,40.00,5,3,11,0.01
2013-12-2,42,33,25,22,19,15,76,58,45,0.00,40.00,6,4,12,0.00
2013-12-3,34,30,28,30,22,16,99,73,49,0.00,40.00,5,2,8,0.00
2013-12-4,34,20,-1,28,15,-4,98,84,54,0.00,40.00,12,5,18,0.00
2013-12-5,13,1,-10,-1,-5,-13,90,75,48,0.00,40.00,2,1,3,0.00
2013-12-6,15,4,-5,-1,-4,-8,90,70,45,0.00,40.00,3,2,6,0.00
2013-12-7,20,9,-2,10,2,-100,93,77,47,0.00,40.00,3,2,9,0.00
2013-12-8,12,8,-3,10,1,-6,93,75,54,0.00,40.00,13,6,20,0.00
2013-12-9,6,-2,-11,-3,-9,-14,88,71,56,0.00,40.00,8,3,13,0.00
2013-12-10,13,2,-12,1,-8,-16,87,65,43,0.00,40.00,2,2,4,0.00
2013-12-11,26,9,-1,6,2,-5,92,73,42,0.00,40.00,2,1,3,0.00
2013-12-12,22,10,0,6,3,-2,92,76,50,0.00,40.00,2,1,3,0.00
2013-12-13,30,12,0,9,5,-2,93,75,39,0.00,40.00,2,1,3,0.00
2013-12-14,27,13,6,11,6,-100,92,79,48,0.00,40.00,2,1,4,0.00
2013-12-15,37,17,6,14,10,4,94,76,38,0.00,40.00,2,1,4,0.01
2013-12-16,35,24,13,17,14,11,93,68,41,0.00,40.00,3,1,5,0.01
2013-12-17,32,25,18,16,15,12,83,65,48,0.00,40.00,2,1,3,0.00
2013-12-18,33,23,11,15,13,9,93,67,45,0.00,40.00,2,1,3,0.00
2013-12-19,40,26,16,24,18,12,96,72,43,0.00,40.00,4,2,8,0.00
2013-12-20,31,23,19,24,20,17,97,87,71,0.00,40.00,7,2,10,0.01
2013-12-21,23,17,11,18,13,-100,99,86,72,0.00,40.00,8,3,11,0.01
2013-12-22,24,13,4,11,8,3,96,81,49,0.00,40.00,8,3,13,0.00
2013-12-23,29,19,11,15,12,9,94,77,52,0.00,40.00,9,4,15,0.00
2013-12-24,31,19,11,21,14,7,91,79,57,0.00,40.00,10,4,20,0.00
2013-12-25,29,13,3,8,1,-5,95,66,27,0.00,40.00,2,1,4,0.00
2013-12-26,29,12,2,6,1,-2,83,64,37,0.00,40.00,3,1,6,0.00
2013-12-27,33,17,6,12,8,4,93,69,41,0.00,40.00,2,1,4,0.00
2013-12-28,25,19,9,14,10,-100,94,74,55,0.00,40.00,2,1,3,0.00
2013-12-29,29,19,12,16,13,9,92,78,55,0.00,40.00,3,2,5,0.00
2013-12-30,33,18,6,11,8,3,92,68,35,0.00,40.00,2,1,5,0.00
2013-12-31,29,20,9,18,14,7,92,75,58,0.00,40.00,3,2,6,0.00
2014-1-1,32,24,15,22,16,6,97,74,50,0.00,40.00,17,6,22,0.00
2014-1-2,35,18,8,8,4,-2,84,59,26,0.00,40.00,2,1,3,0.00